Weather Roundup
Issued by NWS Springfield, MO

Home | Current Version | Previous Version | Text Only | Print | Product List | Glossary On
Versions: 1 2 3 4 5 6 7 8 9 10 11 12 13 14 15 16 17 18 19 20 21 22 23 24 25 26 27 28 29 30 31 32 33 34 35 36 37 38 39 40 41 42 43 44 45 46 47 48 49 50
000
NZUS99 KSGF 171657
HRRSGF

HOURLY WEATHER
NATIONAL WEATHER SERVICE SPRINGFIELD MO
1200 PM CDT THU AUG 17 2017

......SGF CWA......

CITY           SKY/WX    TMP DP  RH WIND       PRES   REMARKS
SPRINGFIELD    CLOUDY    77  70  79 W7        30.00S
JOPLIN         CLOUDY    79  71  76 W6        30.02S
WEST PLAINS    CLOUDY    75  69  81 W10       30.00S
ROLLA          PTSUNNY   77  70  79 W8        29.97S
OSAGE BEACH    CLOUDY    73  70  88 W9        29.98S
BRANSON        CLOUDY    75  70  83 W5        30.03S

......SURROUNDING SGF CWA......

CITY           SKY/WX    TMP DP  RH WIND       PRES   REMARKS
CHANUTE        SUNNY     80  65  59 NW9       30.03R
PARSONS        SUNNY     80  68  66 VRB6      30.03S
COFFEYVILLE    SUNNY     80  68  66 VRB5      30.02S
EMPORIA        SUNNY     78  61  55 VRB7      30.03S
HARRISON AR    CLOUDY    75  69  81 W7        30.03S

......KANSAS AND MISSOURI......

CITY           SKY/WX    TMP DP  RH WIND       PRES   REMARKS
KANSAS CTY INT MOSUNNY   78  63  59 W9        29.97S
SEDALIA        CLOUDY    79  69  71 W6        29.97S
ST JOSEPH      SUNNY     77  63  61 NW15G24   29.95S
ST LOUIS       MOSUNNY   82  70  66 W12       29.90F
WICHITA        MOSUNNY   82  60  47 N5        30.05S
TOPEKA         SUNNY     81  62  52 NW9       29.99R
OLATHE         SUNNY     76  65  68 W9        29.98S

......TENNESSEE......

CITY           SKY/WX    TMP DP  RH WIND       PRES   REMARKS
MEMPHIS        NOT AVBL
NASHVILLE      CLOUDY    85  72  65 SW13      30.03F HX  91

......ARKANSAS.......

CITY           SKY/WX    TMP DP  RH WIND       PRES   REMARKS
FAYETTEVILLE   CLOUDY    76  70  82 W8        30.05R
FT SMITH       MOSUNNY   81  70  69 W9        30.02S
LITTLE ROCK    CLOUDY    77  74  90 W7        30.00F

......OKLAHOMA.......

CITY           SKY/WX    TMP DP  RH WIND       PRES   REMARKS
TULSA          MOSUNNY   83  74  74 VRB6      30.01S
PONCA CITY     SUNNY     82  63  52 VRB6      30.04S
MCALESTER      MOSUNNY   81  73  76 VRB5      30.05S
OKLAHOMA CITY  MOSUNNY   83  69  62 N7        30.06S

......IOWA............

CITY           SKY/WX    TMP DP  RH WIND       PRES   REMARKS
DES MOINES     NOT AVBL
QUAD CITIES    CLOUDY    77  64  64 W22G29    29.78F

......ILLINOIS........

CITY           SKY/WX    TMP DP  RH WIND       PRES   REMARKS
QUINCY         NOT AVBL
CHICAGO        PTSUNNY   77  70  79 S12G21    29.75F




USA.gov is the U.S. government's official web portal to all federal, state and local government web resources and services.